Year,Month,Day,Hour,Minute,Value (Times are PST for temperature in C)
2018,06,04,00,00,9.70
2018,06,04,00,01,9.60
2018,06,04,00,02,9.60
2018,06,04,00,03,9.60
2018,06,04,00,04,9.50
2018,06,04,00,05,9.50
2018,06,04,00,06,9.40
2018,06,04,00,07,9.40
2018,06,04,00,08,9.40
2018,06,04,00,09,9.30
2018,06,04,00,10,9.30
2018,06,04,00,11,9.30
2018,06,04,00,12,9.30
2018,06,04,00,13,9.30
2018,06,04,00,14,9.30
2018,06,04,00,15,9.20
2018,06,04,00,16,9.20
2018,06,04,00,17,9.20
2018,06,04,00,18,9.20
2018,06,04,00,19,9.20
2018,06,04,00,20,9.20
2018,06,04,00,21,9.20
2018,06,04,00,22,9.20
2018,06,04,00,23,9.20
2018,06,04,00,24,9.20
2018,06,04,00,25,9.20
2018,06,04,00,26,9.20
2018,06,04,00,27,9.10
2018,06,04,00,28,9.10
2018,06,04,00,29,9.10
2018,06,04,00,30,9.10
2018,06,04,00,31,9.10
2018,06,04,00,32,9.10
2018,06,04,00,33,9.00
2018,06,04,00,34,9.00
2018,06,04,00,35,9.00
2018,06,04,00,36,8.90
2018,06,04,00,37,8.90
2018,06,04,00,38,8.90
2018,06,04,00,39,8.90
2018,06,04,00,40,8.90
2018,06,04,00,41,8.90
2018,06,04,00,42,8.90
2018,06,04,00,43,9.00
2018,06,04,00,44,9.00
2018,06,04,00,45,9.10
2018,06,04,00,46,9.20
2018,06,04,00,47,9.30
2018,06,04,00,48,9.30
2018,06,04,00,49,9.30
2018,06,04,00,50,9.30
2018,06,04,00,51,9.20
2018,06,04,00,52,9.20
2018,06,04,00,53,9.20
2018,06,04,00,54,9.20
2018,06,04,00,55,9.20
2018,06,04,00,56,9.20
2018,06,04,00,57,9.20
2018,06,04,00,58,9.20
2018,06,04,00,59,9.20
2018,06,04,01,00,9.20
2018,06,04,01,01,9.20
2018,06,04,01,02,9.10
2018,06,04,01,03,9.10
2018,06,04,01,04,9.10
2018,06,04,01,05,9.00
2018,06,04,01,06,9.00
2018,06,04,01,07,8.90
2018,06,04,01,08,8.90
2018,06,04,01,09,8.90
2018,06,04,01,10,8.80
2018,06,04,01,11,8.80
2018,06,04,01,12,8.80
2018,06,04,01,13,8.80
2018,06,04,01,14,8.80
2018,06,04,01,15,8.90
2018,06,04,01,16,8.90
2018,06,04,01,17,8.90
2018,06,04,01,18,8.90
2018,06,04,01,19,8.90
2018,06,04,01,20,8.90
2018,06,04,01,21,8.90
2018,06,04,01,22,8.90
2018,06,04,01,23,8.90
2018,06,04,01,24,8.90
2018,06,04,01,25,8.90
2018,06,04,01,26,8.90
2018,06,04,01,27,8.90
2018,06,04,01,28,8.90
2018,06,04,01,29,8.80
2018,06,04,01,30,8.80
2018,06,04,01,31,8.70
2018,06,04,01,32,8.70
2018,06,04,01,33,8.60
2018,06,04,01,34,8.60
2018,06,04,01,35,8.60
2018,06,04,01,36,8.60
2018,06,04,01,37,8.60
2018,06,04,01,38,8.60
2018,06,04,01,39,8.60
2018,06,04,01,40,8.60
2018,06,04,01,41,8.60
2018,06,04,01,42,8.60
2018,06,04,01,43,8.60
2018,06,04,01,44,8.60
2018,06,04,01,45,8.70
2018,06,04,01,46,8.70
2018,06,04,01,47,8.70
2018,06,04,01,48,8.70
2018,06,04,01,49,8.60
2018,06,04,01,50,8.60
2018,06,04,01,51,8.60
2018,06,04,01,52,8.60
2018,06,04,01,53,8.60
2018,06,04,01,54,8.60
2018,06,04,01,55,8.60
2018,06,04,01,56,8.60
2018,06,04,01,57,8.60
2018,06,04,01,58,8.70
2018,06,04,01,59,8.70
2018,06,04,02,00,8.70
2018,06,04,02,01,8.70
2018,06,04,02,02,8.70
2018,06,04,02,03,8.70
2018,06,04,02,04,8.70
2018,06,04,02,05,8.60
2018,06,04,02,06,8.60
2018,06,04,02,07,8.50
2018,06,04,02,08,8.50
2018,06,04,02,09,8.50
2018,06,04,02,10,8.50
2018,06,04,02,11,8.60
2018,06,04,02,12,8.60
2018,06,04,02,13,8.60
2018,06,04,02,14,8.60
2018,06,04,02,15,8.60
2018,06,04,02,16,8.50
2018,06,04,02,17,8.50
2018,06,04,02,18,8.50
2018,06,04,02,19,8.50
2018,06,04,02,20,8.50
2018,06,04,02,21,8.50
2018,06,04,02,22,8.50
2018,06,04,02,23,8.50
2018,06,04,02,24,8.50
2018,06,04,02,25,8.50
2018,06,04,02,26,8.50
2018,06,04,02,27,8.50
2018,06,04,02,28,8.50
2018,06,04,02,29,8.60
2018,06,04,02,30,8.60
2018,06,04,02,31,8.60
2018,06,04,02,32,8.60
2018,06,04,02,33,8.60
2018,06,04,02,34,8.50
2018,06,04,02,35,8.50
2018,06,04,02,36,8.50
2018,06,04,02,37,8.50
2018,06,04,02,38,8.40
2018,06,04,02,39,8.40
2018,06,04,02,40,8.40
2018,06,04,02,41,8.40
2018,06,04,02,42,8.40
2018,06,04,02,43,8.40
2018,06,04,02,44,8.40
2018,06,04,02,45,8.40
2018,06,04,02,46,8.40
2018,06,04,02,47,8.40
2018,06,04,02,48,8.30
2018,06,04,02,49,8.30
2018,06,04,02,50,8.40
2018,06,04,02,51,8.40
2018,06,04,02,52,8.40
2018,06,04,02,53,8.40
2018,06,04,02,54,8.40
2018,06,04,02,55,8.40
2018,06,04,02,56,8.40
2018,06,04,02,57,8.40
2018,06,04,02,58,8.40
2018,06,04,02,59,8.40
2018,06,04,03,00,8.50
2018,06,04,03,01,8.50
2018,06,04,03,02,8.60
2018,06,04,03,03,8.60
2018,06,04,03,04,8.60
2018,06,04,03,05,8.60
2018,06,04,03,06,8.60
2018,06,04,03,07,8.60
2018,06,04,03,08,8.60
2018,06,04,03,09,8.70
2018,06,04,03,10,8.70
2018,06,04,03,11,8.70
2018,06,04,03,12,8.70
2018,06,04,03,13,8.70
2018,06,04,03,14,8.70
2018,06,04,03,15,8.70
2018,06,04,03,16,8.70
2018,06,04,03,17,8.70
2018,06,04,03,18,8.70
2018,06,04,03,19,8.70
2018,06,04,03,20,8.70
2018,06,04,03,21,8.70
2018,06,04,03,22,8.70
2018,06,04,03,23,8.70
2018,06,04,03,24,8.70
2018,06,04,03,25,8.70
2018,06,04,03,26,8.70
2018,06,04,03,27,8.70
2018,06,04,03,28,8.60
2018,06,04,03,29,8.60
2018,06,04,03,30,8.60
2018,06,04,03,31,8.60
2018,06,04,03,32,8.60
2018,06,04,03,33,8.60
2018,06,04,03,34,8.60
2018,06,04,03,35,8.60
2018,06,04,03,36,8.60
2018,06,04,03,37,8.70
2018,06,04,03,38,8.70
2018,06,04,03,39,8.80
2018,06,04,03,40,8.80
2018,06,04,03,41,8.80
2018,06,04,03,42,8.80
2018,06,04,03,43,8.80
2018,06,04,03,44,8.80
2018,06,04,03,45,8.90
2018,06,04,03,46,8.90
2018,06,04,03,47,9.00
2018,06,04,03,48,9.00
2018,06,04,03,49,9.00
2018,06,04,03,50,9.00
2018,06,04,03,51,9.00
2018,06,04,03,52,9.10
2018,06,04,03,53,9.10
2018,06,04,03,54,9.10
2018,06,04,03,55,9.10
2018,06,04,03,56,9.10
2018,06,04,03,57,9.10
2018,06,04,03,58,9.10
2018,06,04,03,59,9.00
2018,06,04,04,00,8.90
2018,06,04,04,01,8.90
2018,06,04,04,02,8.90
2018,06,04,04,03,8.80
2018,06,04,04,04,8.80
2018,06,04,04,05,8.70
2018,06,04,04,06,8.70
2018,06,04,04,07,8.60
2018,06,04,04,08,8.50
2018,06,04,04,09,8.50
2018,06,04,04,10,8.40
2018,06,04,04,11,8.40
2018,06,04,04,12,8.30
2018,06,04,04,13,8.30
2018,06,04,04,14,8.30
2018,06,04,04,15,8.20
2018,06,04,04,16,8.20
2018,06,04,04,17,8.20
2018,06,04,04,18,8.20
2018,06,04,04,19,8.20
2018,06,04,04,20,8.20
2018,06,04,04,21,8.20
2018,06,04,04,22,8.20
2018,06,04,04,23,8.30
2018,06,04,04,24,8.30
2018,06,04,04,25,8.30
2018,06,04,04,26,8.30
2018,06,04,04,27,8.30
2018,06,04,04,28,8.30
2018,06,04,04,29,8.30
2018,06,04,04,30,8.40
2018,06,04,04,31,8.40
2018,06,04,04,32,8.40
2018,06,04,04,33,8.40
2018,06,04,04,34,8.40
2018,06,04,04,35,8.40
2018,06,04,04,36,8.40
2018,06,04,04,37,8.40
2018,06,04,04,38,8.40
2018,06,04,04,39,8.30
2018,06,04,04,40,8.30
2018,06,04,04,41,8.30
2018,06,04,04,42,8.30
2018,06,04,04,43,8.30
2018,06,04,04,44,8.30
2018,06,04,04,45,8.30
2018,06,04,04,46,8.30
2018,06,04,04,47,8.30
2018,06,04,04,48,8.30
2018,06,04,04,49,8.30
2018,06,04,04,50,8.30
2018,06,04,04,51,8.20
2018,06,04,04,52,8.20
2018,06,04,04,53,8.10
2018,06,04,04,54,8.10
2018,06,04,04,55,8.00
2018,06,04,04,56,7.90
2018,06,04,04,57,7.80
2018,06,04,04,58,7.80
2018,06,04,04,59,7.80
2018,06,04,05,00,7.80
2018,06,04,05,01,7.70
2018,06,04,05,02,7.70
2018,06,04,05,03,7.70
2018,06,04,05,04,7.60
2018,06,04,05,05,7.60
2018,06,04,05,06,7.50
2018,06,04,05,07,7.50
2018,06,04,05,08,7.40
2018,06,04,05,09,7.40
2018,06,04,05,10,7.40
2018,06,04,05,11,7.30
2018,06,04,05,12,7.30
2018,06,04,05,13,7.30
2018,06,04,05,14,7.30
2018,06,04,05,15,7.30
2018,06,04,05,16,7.30
2018,06,04,05,17,7.30
2018,06,04,05,18,7.40
2018,06,04,05,19,7.40
2018,06,04,05,20,7.40
2018,06,04,05,21,7.50
2018,06,04,05,22,7.50
2018,06,04,05,23,7.50
2018,06,04,05,24,7.50
2018,06,04,05,25,7.60
2018,06,04,05,26,7.60
2018,06,04,05,27,7.60
2018,06,04,05,28,7.60
2018,06,04,05,29,7.60
2018,06,04,05,30,7.60
2018,06,04,05,31,7.50
2018,06,04,05,32,7.50
2018,06,04,05,33,7.50
2018,06,04,05,34,7.50
2018,06,04,05,35,7.40
2018,06,04,05,36,7.40
2018,06,04,05,37,7.30
2018,06,04,05,38,7.30
2018,06,04,05,39,7.30
2018,06,04,05,40,7.30
2018,06,04,05,41,7.20
2018,06,04,05,42,7.20
2018,06,04,05,43,7.20
2018,06,04,05,44,7.10
2018,06,04,05,45,7.10
2018,06,04,05,46,7.00
2018,06,04,05,47,6.90
2018,06,04,05,48,6.90
2018,06,04,05,49,6.80
2018,06,04,05,50,6.80
2018,06,04,05,51,6.80
2018,06,04,05,52,6.80
2018,06,04,05,53,6.70
2018,06,04,05,54,6.70
2018,06,04,05,55,6.60
2018,06,04,05,56,6.60
2018,06,04,05,57,6.60
2018,06,04,05,58,6.60
2018,06,04,05,59,6.60
2018,06,04,06,00,6.60
2018,06,04,06,01,6.60
2018,06,04,06,02,6.60
2018,06,04,06,03,6.60
2018,06,04,06,04,6.60
2018,06,04,06,05,6.60
2018,06,04,06,06,6.60
2018,06,04,06,07,6.60
2018,06,04,06,08,6.60
2018,06,04,06,09,6.60
2018,06,04,06,10,6.70
2018,06,04,06,11,6.70
2018,06,04,06,12,6.70
2018,06,04,06,13,6.70
2018,06,04,06,14,6.70
2018,06,04,06,15,6.70
2018,06,04,06,16,6.70
2018,06,04,06,17,6.70
2018,06,04,06,18,6.70
2018,06,04,06,19,6.70
2018,06,04,06,20,6.80
2018,06,04,06,21,6.70
2018,06,04,06,22,6.80
2018,06,04,06,23,6.80
2018,06,04,06,24,6.80
2018,06,04,06,25,6.80
2018,06,04,06,26,6.80
2018,06,04,06,27,6.80
2018,06,04,06,28,6.80
2018,06,04,06,29,6.90
2018,06,04,06,30,6.90
2018,06,04,06,31,6.90
2018,06,04,06,32,6.90
2018,06,04,06,33,6.90
2018,06,04,06,34,6.90
2018,06,04,06,35,6.90
2018,06,04,06,36,6.90
2018,06,04,06,37,6.90
2018,06,04,06,38,6.90
2018,06,04,06,39,6.80
2018,06,04,06,40,6.80
2018,06,04,06,41,6.80
2018,06,04,06,42,6.80
2018,06,04,06,43,6.80
2018,06,04,06,44,6.80
2018,06,04,06,45,6.80
2018,06,04,06,46,6.80
2018,06,04,06,47,6.80
2018,06,04,06,48,6.80
2018,06,04,06,49,6.90
2018,06,04,06,50,6.80
2018,06,04,06,51,6.80
2018,06,04,06,52,6.80
2018,06,04,06,53,6.80
2018,06,04,06,54,6.80
2018,06,04,06,55,6.80
2018,06,04,06,56,6.80
2018,06,04,06,57,6.80
2018,06,04,06,58,6.80
2018,06,04,06,59,6.80
2018,06,04,07,00,6.80
2018,06,04,07,01,6.80
2018,06,04,07,02,6.80
2018,06,04,07,03,6.80
2018,06,04,07,04,6.80
2018,06,04,07,05,6.80
2018,06,04,07,06,6.80
2018,06,04,07,07,6.80
2018,06,04,07,08,6.80
2018,06,04,07,09,6.80
2018,06,04,07,10,6.80
2018,06,04,07,11,6.80
2018,06,04,07,12,6.80
2018,06,04,07,13,6.80
2018,06,04,07,14,6.80
2018,06,04,07,15,6.80
2018,06,04,07,16,6.90
2018,06,04,07,17,6.90
2018,06,04,07,18,6.90
2018,06,04,07,19,7.00
2018,06,04,07,20,7.00
2018,06,04,07,21,7.10
2018,06,04,07,22,7.20
2018,06,04,07,23,7.30
2018,06,04,07,24,7.40
2018,06,04,07,25,7.50
2018,06,04,07,26,7.50
2018,06,04,07,27,7.60
2018,06,04,07,28,7.60
2018,06,04,07,29,7.70
2018,06,04,07,30,7.70
2018,06,04,07,31,7.80
2018,06,04,07,32,7.80
2018,06,04,07,33,7.90
2018,06,04,07,34,8.00
2018,06,04,07,35,8.00
2018,06,04,07,36,8.10
2018,06,04,07,37,8.10
2018,06,04,07,38,8.20
2018,06,04,07,39,8.30
2018,06,04,07,40,8.30
2018,06,04,07,41,8.40
2018,06,04,07,42,8.60
2018,06,04,07,43,8.80
2018,06,04,07,44,9.00
2018,06,04,07,45,9.20
2018,06,04,07,46,9.40
2018,06,04,07,47,9.60
2018,06,04,07,48,9.70
2018,06,04,07,49,9.80
2018,06,04,07,50,9.90
2018,06,04,07,51,10.00
2018,06,04,07,52,10.10
2018,06,04,07,53,10.20
2018,06,04,07,54,10.20
2018,06,04,07,55,10.30
2018,06,04,07,56,10.30
2018,06,04,07,57,10.30
2018,06,04,07,58,10.30
2018,06,04,07,59,10.30
2018,06,04,08,00,10.30
2018,06,04,08,01,10.30
2018,06,04,08,02,10.40
2018,06,04,08,03,10.40
2018,06,04,08,04,10.50
2018,06,04,08,05,10.50
2018,06,04,08,06,10.50
2018,06,04,08,07,10.50
2018,06,04,08,08,10.50
2018,06,04,08,09,10.50
2018,06,04,08,10,10.50
2018,06,04,08,11,10.50
2018,06,04,08,12,10.50
2018,06,04,08,13,10.60
2018,06,04,08,14,10.60
2018,06,04,08,15,10.60
2018,06,04,08,16,10.60
2018,06,04,08,17,10.60
2018,06,04,08,18,10.60
2018,06,04,08,19,10.60
2018,06,04,08,20,10.70
2018,06,04,08,21,10.70
2018,06,04,08,22,10.70
2018,06,04,08,23,10.70
2018,06,04,08,24,10.70
2018,06,04,08,25,10.80
2018,06,04,08,26,10.80
2018,06,04,08,27,10.90
2018,06,04,08,28,10.90
2018,06,04,08,29,10.90
2018,06,04,08,30,11.00
2018,06,04,08,31,11.00
2018,06,04,08,32,11.10
2018,06,04,08,33,11.10
2018,06,04,08,34,11.20
2018,06,04,08,35,11.20
2018,06,04,08,36,11.30
2018,06,04,08,37,11.30
2018,06,04,08,38,11.40
2018,06,04,08,39,11.40
2018,06,04,08,40,11.50
2018,06,04,08,41,11.50
2018,06,04,08,42,11.60
2018,06,04,08,43,11.60
2018,06,04,08,44,11.70
2018,06,04,08,45,11.70
2018,06,04,08,46,11.70
2018,06,04,08,47,11.80
2018,06,04,08,48,11.80
2018,06,04,08,49,11.80
2018,06,04,08,50,11.90
2018,06,04,08,51,11.90
2018,06,04,08,52,11.90
2018,06,04,08,53,11.90
2018,06,04,08,54,12.00
2018,06,04,08,55,12.00
2018,06,04,08,56,12.10
2018,06,04,08,57,12.20
2018,06,04,08,58,12.30
2018,06,04,08,59,12.30
2018,06,04,09,00,12.30
2018,06,04,09,01,12.30
2018,06,04,09,02,12.20
2018,06,04,09,03,12.20
2018,06,04,09,04,12.20
2018,06,04,09,05,12.10
2018,06,04,09,06,12.10
2018,06,04,09,07,12.00
2018,06,04,09,08,11.90
2018,06,04,09,09,11.90
2018,06,04,09,10,11.90
2018,06,04,09,11,11.80
2018,06,04,09,12,11.80
2018,06,04,09,13,11.80
2018,06,04,09,14,11.80
2018,06,04,09,15,11.80
2018,06,04,09,16,11.80
2018,06,04,09,17,11.80
2018,06,04,09,18,11.80
2018,06,04,09,19,11.80
2018,06,04,09,20,11.80
2018,06,04,09,21,11.90
2018,06,04,09,22,11.90
2018,06,04,09,23,11.90
2018,06,04,09,24,12.00
2018,06,04,09,25,12.00
2018,06,04,09,26,12.10
2018,06,04,09,27,12.10
2018,06,04,09,28,12.10
2018,06,04,09,29,12.20
2018,06,04,09,30,12.20
2018,06,04,09,31,12.30
2018,06,04,09,32,12.30
2018,06,04,09,33,12.40
2018,06,04,09,34,12.50
2018,06,04,09,35,12.60
2018,06,04,09,36,12.70
2018,06,04,09,37,12.70
2018,06,04,09,38,12.70
2018,06,04,09,39,12.80
2018,06,04,09,40,12.80
2018,06,04,09,41,13.00
2018,06,04,09,42,13.00
2018,06,04,09,43,13.10
2018,06,04,09,44,13.10
2018,06,04,09,45,13.10
2018,06,04,09,46,13.10
2018,06,04,09,47,13.20
2018,06,04,09,48,13.20
2018,06,04,09,49,13.20
2018,06,04,09,50,13.10
2018,06,04,09,51,13.10
2018,06,04,09,52,13.00
2018,06,04,09,53,13.00
2018,06,04,09,54,12.90
2018,06,04,09,55,12.80
2018,06,04,09,56,12.80
2018,06,04,09,57,12.70
2018,06,04,09,58,12.70
2018,06,04,09,59,12.70
2018,06,04,10,00,12.70
2018,06,04,10,01,12.70
2018,06,04,10,02,12.70
2018,06,04,10,03,12.80
2018,06,04,10,04,12.80
2018,06,04,10,05,12.80
2018,06,04,10,06,12.80
2018,06,04,10,07,12.80
2018,06,04,10,08,12.80
2018,06,04,10,09,12.80
2018,06,04,10,10,12.90
2018,06,04,10,11,12.90
2018,06,04,10,12,12.90
2018,06,04,10,13,13.00
2018,06,04,10,14,13.00
2018,06,04,10,15,13.10
2018,06,04,10,16,13.20
2018,06,04,10,17,13.30
2018,06,04,10,18,13.40
2018,06,04,10,19,13.60
2018,06,04,10,20,13.70
2018,06,04,10,21,13.90
2018,06,04,10,22,13.90
2018,06,04,10,23,13.80
2018,06,04,10,24,13.80
2018,06,04,10,25,13.70
2018,06,04,10,26,13.60
2018,06,04,10,27,13.60
2018,06,04,10,28,13.60
2018,06,04,10,29,13.50
2018,06,04,10,30,13.40
2018,06,04,10,31,13.30
2018,06,04,10,32,13.20
2018,06,04,10,33,13.30
2018,06,04,10,34,13.40
2018,06,04,10,35,13.50
2018,06,04,10,36,13.70
2018,06,04,10,37,13.80
2018,06,04,10,38,13.90
2018,06,04,10,39,13.90
2018,06,04,10,40,13.90
2018,06,04,10,41,13.80
2018,06,04,10,42,13.70
2018,06,04,10,43,13.70
2018,06,04,10,44,13.60
2018,06,04,10,45,13.50
2018,06,04,10,46,13.40
2018,06,04,10,47,13.30
2018,06,04,10,48,13.30
2018,06,04,10,49,13.20
2018,06,04,10,50,13.30
2018,06,04,10,51,13.40
2018,06,04,10,52,13.50
2018,06,04,10,53,13.60
2018,06,04,10,54,13.60
2018,06,04,10,55,13.70
2018,06,04,10,56,13.70
2018,06,04,10,57,13.70
2018,06,04,10,58,13.70
2018,06,04,10,59,13.80
2018,06,04,11,00,13.90
2018,06,04,11,01,14.00
2018,06,04,11,02,14.10
2018,06,04,11,03,13.90
2018,06,04,11,04,13.70
2018,06,04,11,05,13.60
2018,06,04,11,06,13.50
2018,06,04,11,07,13.30
2018,06,04,11,08,13.30
2018,06,04,11,09,13.40
2018,06,04,11,10,13.40
2018,06,04,11,11,13.50
2018,06,04,11,12,13.50
2018,06,04,11,13,13.60
2018,06,04,11,14,13.60
2018,06,04,11,15,13.50
2018,06,04,11,16,13.40
2018,06,04,11,17,13.50
2018,06,04,11,18,13.50
2018,06,04,11,19,13.60
2018,06,04,11,20,13.60
2018,06,04,11,21,13.50
2018,06,04,11,22,13.50
2018,06,04,11,23,13.40
2018,06,04,11,24,13.40
2018,06,04,11,25,13.40
2018,06,04,11,26,13.30
2018,06,04,11,27,13.20
2018,06,04,11,28,13.20
2018,06,04,11,29,13.20
2018,06,04,11,30,13.10
2018,06,04,11,31,13.10
2018,06,04,11,32,13.10
2018,06,04,11,33,13.10
2018,06,04,11,34,13.10
2018,06,04,11,35,13.20
2018,06,04,11,36,13.20
2018,06,04,11,37,13.30
2018,06,04,11,38,13.30
2018,06,04,11,39,13.20
2018,06,04,11,40,13.10
2018,06,04,11,41,12.90
2018,06,04,11,42,12.80
2018,06,04,11,43,12.80
2018,06,04,11,44,12.70
2018,06,04,11,45,12.70
2018,06,04,11,46,12.70
2018,06,04,11,47,12.70
2018,06,04,11,48,12.70
2018,06,04,11,49,12.70
2018,06,04,11,50,12.80
2018,06,04,11,51,12.80
2018,06,04,11,52,12.80
2018,06,04,11,53,12.80
2018,06,04,11,54,12.80
2018,06,04,11,55,12.70
2018,06,04,11,56,12.80
2018,06,04,11,57,12.70
2018,06,04,11,58,12.70
2018,06,04,11,59,12.60
2018,06,04,12,00,12.60
2018,06,04,12,01,12.60
2018,06,04,12,02,12.60
2018,06,04,12,03,12.60
2018,06,04,12,04,12.50
2018,06,04,12,05,12.50
2018,06,04,12,06,12.40
2018,06,04,12,07,12.30
2018,06,04,12,08,12.30
2018,06,04,12,09,12.20
2018,06,04,12,10,12.20
2018,06,04,12,11,12.20
2018,06,04,12,12,12.20
2018,06,04,12,13,12.10
2018,06,04,12,14,12.10
2018,06,04,12,15,12.10
2018,06,04,12,16,12.10
2018,06,04,12,17,12.00
2018,06,04,12,18,12.00
2018,06,04,12,19,12.00
2018,06,04,12,20,11.90
2018,06,04,12,21,11.90
2018,06,04,12,22,11.80
2018,06,04,12,23,11.80
2018,06,04,12,24,11.80
2018,06,04,12,25,11.80
2018,06,04,12,26,11.80
2018,06,04,12,27,11.80
2018,06,04,12,28,11.80
2018,06,04,12,29,11.80
2018,06,04,12,30,11.80
2018,06,04,12,31,11.90
2018,06,04,12,32,11.80
2018,06,04,12,33,11.80
2018,06,04,12,34,11.80
2018,06,04,12,35,11.80
2018,06,04,12,36,11.80
2018,06,04,12,37,11.80
2018,06,04,12,38,11.80
2018,06,04,12,39,11.80
2018,06,04,12,40,11.90
2018,06,04,12,41,11.90
2018,06,04,12,42,12.00
2018,06,04,12,43,12.00
2018,06,04,12,44,12.10
2018,06,04,12,45,12.00
2018,06,04,12,46,12.00
2018,06,04,12,47,12.00
2018,06,04,12,48,12.00
2018,06,04,12,49,12.00
2018,06,04,12,50,12.00
2018,06,04,12,51,12.10
2018,06,04,12,52,12.10
2018,06,04,12,53,12.10
2018,06,04,12,54,12.20
2018,06,04,12,55,12.20
2018,06,04,12,56,12.20
2018,06,04,12,57,12.30
2018,06,04,12,58,12.30
2018,06,04,12,59,12.30
2018,06,04,13,00,12.30
2018,06,04,13,01,12.30
2018,06,04,13,02,12.30
2018,06,04,13,03,12.40
2018,06,04,13,04,12.30
2018,06,04,13,05,12.30
2018,06,04,13,06,12.30
2018,06,04,13,07,12.20
2018,06,04,13,08,12.20
2018,06,04,13,09,12.10
2018,06,04,13,10,12.10
2018,06,04,13,11,12.10
2018,06,04,13,12,12.00
2018,06,04,13,13,11.90
2018,06,04,13,14,11.80
2018,06,04,13,15,11.80
2018,06,04,13,16,11.80
2018,06,04,13,17,11.80
2018,06,04,13,18,11.80
2018,06,04,13,19,11.80
2018,06,04,13,20,11.80
2018,06,04,13,21,11.80
2018,06,04,13,22,11.80
2018,06,04,13,23,11.90
2018,06,04,13,24,12.00
2018,06,04,13,25,12.10
2018,06,04,13,26,12.10
2018,06,04,13,27,12.20
2018,06,04,13,28,12.30
2018,06,04,13,29,12.30
2018,06,04,13,30,12.30
2018,06,04,13,31,12.40
2018,06,04,13,32,12.50
2018,06,04,13,33,12.70
2018,06,04,13,34,12.80
2018,06,04,13,35,12.90
2018,06,04,13,36,12.90
2018,06,04,13,37,13.00
2018,06,04,13,38,13.10
2018,06,04,13,39,13.20
2018,06,04,13,40,13.20
2018,06,04,13,41,13.20
2018,06,04,13,42,13.20
2018,06,04,13,43,13.30
2018,06,04,13,44,13.40
2018,06,04,13,45,13.50
2018,06,04,13,46,13.50
2018,06,04,13,47,13.50
2018,06,04,13,48,13.40
2018,06,04,13,49,13.40
2018,06,04,13,50,13.40
2018,06,04,13,51,13.50
2018,06,04,13,52,13.40
2018,06,04,13,53,13.40
2018,06,04,13,54,13.40
2018,06,04,13,55,13.30
2018,06,04,13,56,13.30
2018,06,04,13,57,13.30
2018,06,04,13,58,13.30
2018,06,04,13,59,13.30
2018,06,04,14,00,13.40
2018,06,04,14,01,13.30
2018,06,04,14,02,13.40
2018,06,04,14,03,13.40
2018,06,04,14,04,13.40
2018,06,04,14,05,13.40
2018,06,04,14,06,13.40
2018,06,04,14,07,13.40
2018,06,04,14,08,13.30
2018,06,04,14,09,13.30
2018,06,04,14,10,13.30
2018,06,04,14,11,13.30
2018,06,04,14,12,13.40
2018,06,04,14,13,13.40
2018,06,04,14,14,13.50
2018,06,04,14,15,13.50
2018,06,04,14,16,13.40
2018,06,04,14,17,13.50
2018,06,04,14,18,13.60
2018,06,04,14,19,13.80
2018,06,04,14,20,14.00
2018,06,04,14,21,14.10
2018,06,04,14,22,14.20
2018,06,04,14,23,14.20
2018,06,04,14,24,14.20
2018,06,04,14,25,14.10
2018,06,04,14,26,14.10
2018,06,04,14,27,14.00
2018,06,04,14,28,14.00
2018,06,04,14,29,14.00
2018,06,04,14,30,14.10
2018,06,04,14,31,14.10
2018,06,04,14,32,14.10
2018,06,04,14,33,14.00
2018,06,04,14,34,14.10
2018,06,04,14,35,14.10
2018,06,04,14,36,14.10
2018,06,04,14,37,14.10
2018,06,04,14,38,14.10
2018,06,04,14,39,14.10
2018,06,04,14,40,14.20
2018,06,04,14,41,14.20
2018,06,04,14,42,14.20
2018,06,04,14,43,14.20
2018,06,04,14,44,14.10
2018,06,04,14,45,14.10
2018,06,04,14,46,14.10
2018,06,04,14,47,14.10
2018,06,04,14,48,14.10
2018,06,04,14,49,14.20
2018,06,04,14,50,14.20
2018,06,04,14,51,14.30
2018,06,04,14,52,14.40
2018,06,04,14,53,14.50
2018,06,04,14,54,14.60
2018,06,04,14,55,14.50
2018,06,04,14,56,14.40
2018,06,04,14,57,14.30
2018,06,04,14,58,14.30
2018,06,04,14,59,14.30
2018,06,04,15,00,14.30
2018,06,04,15,01,14.30
2018,06,04,15,02,14.30
2018,06,04,15,03,14.40
2018,06,04,15,04,14.40
2018,06,04,15,05,14.40
2018,06,04,15,06,14.40
2018,06,04,15,07,14.50
2018,06,04,15,08,14.60
2018,06,04,15,09,14.70
2018,06,04,15,10,14.70
2018,06,04,15,11,14.70
2018,06,04,15,12,14.60
2018,06,04,15,13,14.60
2018,06,04,15,14,14.60
2018,06,04,15,15,14.60
2018,06,04,15,16,14.50
2018,06,04,15,17,14.40
2018,06,04,15,18,14.30
2018,06,04,15,19,14.30
2018,06,04,15,20,14.30
2018,06,04,15,21,14.30
2018,06,04,15,22,14.40
2018,06,04,15,23,14.50
2018,06,04,15,24,14.50
2018,06,04,15,25,14.40
2018,06,04,15,26,14.40
2018,06,04,15,27,14.40
2018,06,04,15,28,14.40
2018,06,04,15,29,14.30
2018,06,04,15,30,14.20
2018,06,04,15,31,14.30
2018,06,04,15,32,14.50
2018,06,04,15,33,14.70
2018,06,04,15,34,14.80
2018,06,04,15,35,14.90
2018,06,04,15,36,14.90
2018,06,04,15,37,14.80
2018,06,04,15,38,14.80
2018,06,04,15,39,14.80
2018,06,04,15,40,14.80
2018,06,04,15,41,14.70
2018,06,04,15,42,14.60
2018,06,04,15,43,14.40
2018,06,04,15,44,14.30
2018,06,04,15,45,14.30
2018,06,04,15,46,14.40
2018,06,04,15,47,14.40
2018,06,04,15,48,14.40
2018,06,04,15,49,14.40
2018,06,04,15,50,14.50
2018,06,04,15,51,14.60
2018,06,04,15,52,14.70
2018,06,04,15,53,14.60
2018,06,04,15,54,14.40
2018,06,04,15,55,14.30
2018,06,04,15,56,14.20
2018,06,04,15,57,14.20
2018,06,04,15,58,14.20
2018,06,04,15,59,14.10
2018,06,04,16,00,14.20
2018,06,04,16,01,14.30
2018,06,04,16,02,14.30
2018,06,04,16,03,14.30
2018,06,04,16,04,14.30
2018,06,04,16,05,14.20
2018,06,04,16,06,14.20
2018,06,04,16,07,14.20
2018,06,04,16,08,14.20
2018,06,04,16,09,14.30
2018,06,04,16,10,14.30
2018,06,04,16,11,14.20
2018,06,04,16,12,14.20
2018,06,04,16,13,14.20
2018,06,04,16,14,14.30
2018,06,04,16,15,14.30
2018,06,04,16,16,14.30
2018,06,04,16,17,14.30
2018,06,04,16,18,14.30
2018,06,04,16,19,14.30
2018,06,04,16,20,14.20
2018,06,04,16,21,14.20
2018,06,04,16,22,14.20
2018,06,04,16,23,14.20
2018,06,04,16,24,14.20
2018,06,04,16,25,14.20
2018,06,04,16,26,14.20
2018,06,04,16,27,14.20
2018,06,04,16,28,14.20
2018,06,04,16,29,14.20
2018,06,04,16,30,14.20
2018,06,04,16,31,14.20
2018,06,04,16,32,14.20
2018,06,04,16,33,14.30
2018,06,04,16,34,14.30
2018,06,04,16,35,14.30
2018,06,04,16,36,14.30
2018,06,04,16,37,14.30
2018,06,04,16,38,14.20
2018,06,04,16,39,14.20
2018,06,04,16,40,14.20
2018,06,04,16,41,14.20
2018,06,04,16,42,14.30
2018,06,04,16,43,14.30
2018,06,04,16,44,14.30
2018,06,04,16,45,14.20
2018,06,04,16,46,14.20
2018,06,04,16,47,14.20
2018,06,04,16,48,14.20
2018,06,04,16,49,14.20
2018,06,04,16,50,14.20
2018,06,04,16,51,14.30
2018,06,04,16,52,14.30
2018,06,04,16,53,14.20
2018,06,04,16,54,14.20
2018,06,04,16,55,14.20
2018,06,04,16,56,14.20
2018,06,04,16,57,14.20
2018,06,04,16,58,14.10
2018,06,04,16,59,14.10
2018,06,04,17,00,14.00
2018,06,04,17,01,14.00
2018,06,04,17,02,13.90
2018,06,04,17,03,13.80
2018,06,04,17,04,13.80
2018,06,04,17,05,13.80
2018,06,04,17,06,13.70
2018,06,04,17,07,13.60
2018,06,04,17,08,13.60
2018,06,04,17,09,13.50
2018,06,04,17,10,13.50
2018,06,04,17,11,13.50
2018,06,04,17,12,13.50
2018,06,04,17,13,13.50
2018,06,04,17,14,13.40
2018,06,04,17,15,13.50
2018,06,04,17,16,13.60
2018,06,04,17,17,13.70
2018,06,04,17,18,13.80
2018,06,04,17,19,13.80
2018,06,04,17,20,13.80
2018,06,04,17,21,13.80
2018,06,04,17,22,13.70
2018,06,04,17,23,13.80
2018,06,04,17,24,13.80
2018,06,04,17,25,13.90
2018,06,04,17,26,13.90
2018,06,04,17,27,14.00
2018,06,04,17,28,14.10
2018,06,04,17,29,14.10
2018,06,04,17,30,14.20
2018,06,04,17,31,14.20
2018,06,04,17,32,14.20
2018,06,04,17,33,14.30
2018,06,04,17,34,14.30
2018,06,04,17,35,14.20
2018,06,04,17,36,14.20
2018,06,04,17,37,14.10
2018,06,04,17,38,14.10
2018,06,04,17,39,14.20